| time (UTC) | temp C | wind direction | speed KPH | gust KPH | rain 1hr cm | rain 24hr cm | rain mn cm | humidity % | barometer mb |
| 20260510014602 | 15 | 360 | 3.2 | 12.9 | 0.00 | 0.00 | 0.00 | 46 | 1005.5 |
| 20260510013057 | 16 | 36 | 8.0 | 20.9 | 0.00 | 0.00 | 0.00 | 46 | 1004.9 |
| 20260510011555 | 16 | 360 | 4.8 | 20.9 | 0.00 | 0.00 | 0.00 | 49 | 1004.3 |
| 20260510010054 | 17 | 360 | 6.4 | 16.1 | 0.00 | 0.00 | 0.00 | 47 | 1003.8 |
| 20260510004554 | 18 | 360 | 4.8 | 16.1 | 0.00 | 0.00 | 0.00 | 44 | 1003.2 |
| 20260510003046 | 18 | 360 | 0.0 | 14.5 | 0.00 | 0.00 | 0.00 | 46 | 1002.5 |
| 20260510001557 | 18 | 360 | 0.0 | 3.2 | 0.00 | 0.00 | 0.00 | 47 | 1002.2 |
| 20260510000002 | 18 | 289 | 0.0 | 1.6 | 0.00 | 0.00 | 0.00 | 48 | 1002.1 |
| 20260509234530 | 19 | 360 | 0.0 | 6.4 | 0.00 | 0.00 | 0.00 | 47 | 1002.0 |
| 20260509233032 | 19 | 360 | 1.6 | 8.0 | 0.00 | 0.00 | 0.00 | 46 | 1002.0 |
| 20260509231544 | 19 | 360 | 4.8 | 12.9 | 0.00 | 0.00 | 0.00 | 44 | 1002.0 |
| 20260509230104 | 19 | 360 | 3.2 | 22.5 | 0.00 | 0.00 | 0.00 | 45 | 1002.0 |
| 20260509224505 | 20 | 360 | 8.0 | 19.3 | 0.00 | 0.00 | 0.00 | 42 | 1002.0 |
| 20260509223021 | 20 | 330 | 8.0 | 25.7 | 0.00 | 0.00 | 0.00 | 40 | 1001.9 |
| 20260509221647 | 20 | 360 | 11.3 | 22.5 | 0.00 | 0.00 | 0.00 | 38 | 1002.0 |
| 20260509220049 | 20 | 292 | 9.7 | 25.7 | 0.00 | 0.00 | 0.00 | 36 | 1001.9 |
| 20260509214605 | 21 | 360 | 11.3 | 25.7 | 0.00 | 0.00 | 0.00 | 34 | 1001.8 |
| 20260509213002 | 21 | 360 | 6.4 | 19.3 | 0.00 | 0.00 | 0.00 | 37 | 1001.5 |
| 20260509211523 | 21 | 360 | 9.7 | 22.5 | 0.00 | 0.00 | 0.00 | 38 | 1001.4 |
| 20260509210042 | 21 | 360 | 6.4 | 22.5 | 0.00 | 0.00 | 0.00 | 40 | 1001.4 |
| 20260509204556 | 20 | 360 | 8.0 | 17.7 | 0.00 | 0.00 | 0.00 | 43 | 1001.4 |
| 20260509203116 | 20 | 337 | 4.8 | 22.5 | 0.00 | 0.00 | 0.00 | 47 | 1001.4 |
| 20260509201507 | 20 | 360 | 4.8 | 14.5 | 0.00 | 0.00 | 0.00 | 46 | 1001.6 |
| 20260509200018 | 19 | 360 | 6.4 | 16.1 | 0.00 | 0.00 | 0.00 | 46 | 1001.9 |
| 20260509194532 | 19 | 5 | 4.8 | 16.1 | 0.00 | 0.00 | 0.00 | 50 | 1002.1 |
| 20260509193100 | 18 | 360 | 4.8 | 16.1 | 0.00 | 0.00 | 0.00 | 51 | 1002.3 |
| 20260509191555 | 18 | 360 | 8.0 | 19.3 | 0.00 | 0.00 | 0.00 | 52 | 1002.3 |
| 20260509184608 | 19 | 360 | 6.4 | 14.5 | 0.00 | 0.00 | 0.00 | 56 | 1001.8 |
| 20260509183057 | 20 | 360 | 6.4 | 24.1 | 0.00 | 0.00 | 0.00 | 54 | 1001.6 |
| 20260509181555 | 20 | 360 | 8.0 | 22.5 | 0.00 | 0.00 | 0.00 | 51 | 1001.2 |
| 20260509180115 | 20 | 360 | 8.0 | 19.3 | 0.00 | 0.00 | 0.00 | 52 | 1001.1 |
| 20260509174513 | 20 | 342 | 8.0 | 20.9 | 0.00 | 0.00 | 0.00 | 52 | 1001.2 |
| 20260509173022 | 19 | 360 | 4.8 | 25.7 | 0.00 | 0.00 | 0.00 | 56 | 1001.3 |
| 20260509171546 | 19 | 360 | 8.0 | 17.7 | 0.00 | 0.00 | 0.00 | 54 | 1001.4 |
| 20260509170051 | 20 | 5 | 9.7 | 19.3 | 0.00 | 0.00 | 0.00 | 55 | 1001.3 |
| 20260509164553 | 18 | 360 | 6.4 | 22.5 | 0.00 | 0.00 | 0.00 | 57 | 1001.2 |
| 20260509163126 | 18 | 306 | 8.0 | 17.7 | 0.00 | 0.00 | 0.00 | 58 | 1001.4 |
| 20260509161608 | 18 | 286 | 8.0 | 19.3 | 0.00 | 0.00 | 0.00 | 59 | 1001.3 |
| 20260509160006 | 17 | 307 | 11.3 | 22.5 | 0.00 | 0.00 | 0.00 | 61 | 1001.5 |
| 20260509154552 | 17 | 302 | 11.3 | 19.3 | 0.00 | 0.00 | 0.00 | 60 | 1001.8 |
| 20260509153050 | 17 | 360 | 9.7 | 17.7 | 0.00 | 0.00 | 0.00 | 61 | 1001.8 |
| 20260509151545 | 16 | 360 | 8.0 | 20.9 | 0.00 | 0.00 | 0.00 | 64 | 1001.7 |
| 20260509150050 | 16 | 360 | 6.4 | 16.1 | 0.00 | 0.00 | 0.00 | 67 | 1001.7 |
| 20260509144514 | 15 | 360 | 8.0 | 19.3 | 0.00 | 0.00 | 0.00 | 69 | 1001.7 |
| 20260509143022 | 15 | 227 | 1.6 | 8.0 | 0.00 | 0.00 | 0.00 | 72 | 1001.8 |
| 20260509141524 | 14 | 286 | 3.2 | 14.5 | 0.00 | 0.00 | 0.00 | 74 | 1002.0 |
| 20260509140019 | 13 | 360 | 4.8 | 12.9 | 0.00 | 0.00 | 0.00 | 76 | 1002.2 |
| 20260509134518 | 13 | 360 | 3.2 | 17.7 | 0.00 | 0.00 | 0.00 | 80 | 1002.3 |
| 20260509133023 | 12 | 360 | 1.6 | 9.7 | 0.00 | 0.00 | 0.00 | 81 | 1002.3 |
| 20260509131529 | 12 | 360 | 1.6 | 4.8 | 0.00 | 0.00 | 0.00 | 83 | 1002.6 |
| 20260509130036 | 12 | 360 | 0.0 | 6.4 | 0.00 | 0.00 | 0.00 | 84 | 1002.9 |
| 20260509124558 | 11 | 360 | 3.2 | 12.9 | 0.00 | 0.00 | 0.00 | 84 | 1002.8 |
| 20260509123056 | 11 | 360 | 4.8 | 14.5 | 0.00 | 0.00 | 0.00 | 86 | 1003.2 |
| 20260509121556 | 11 | 360 | 1.6 | 8.0 | 0.00 | 0.00 | 0.00 | 87 | 1003.3 |
| 20260509114529 | 10 | 360 | 3.2 | 9.7 | 0.00 | 0.00 | 0.00 | 90 | 1003.5 |
| 20260509113026 | 10 | 360 | 0.0 | 8.0 | 0.00 | 0.00 | 0.00 | 90 | 1003.4 |
| 20260509111526 | 10 | 360 | 3.2 | 8.0 | 0.00 | 0.00 | 0.00 | 90 | 1003.4 |
| 20260509110025 | 10 | 360 | 0.0 | 6.4 | 0.00 | 0.00 | 0.00 | 90 | 1003.3 |
| 20260509104531 | 10 | 281 | 0.0 | 3.2 | 0.00 | 0.00 | 0.00 | 90 | 1003.1 |
| 20260509103020 | 10 | 267 | 0.0 | 4.8 | 0.00 | 0.00 | 0.00 | 90 | 1003.2 |
| 20260509101518 | 10 | 267 | 0.0 | 0.0 | 0.00 | 0.00 | 0.00 | 90 | 1003.3 |
| 20260509100026 | 10 | 360 | 0.0 | 0.0 | 0.00 | 0.00 | 0.00 | 90 | 1003.4 |
| 20260509094520 | 10 | 360 | 0.0 | 4.8 | 0.00 | 0.00 | 0.00 | 90 | 1003.4 |
| 20260509093014 | 10 | 360 | 0.0 | 0.0 | 0.00 | 0.00 | 0.00 | 90 | 1003.7 |
| 20260509091513 | 10 | 360 | 0.0 | 0.0 | 0.00 | 0.00 | 0.00 | 90 | 1003.7 |
| 20260509090012 | 10 | 5 | 0.0 | 0.0 | 0.00 | 0.00 | 0.00 | 90 | 1003.7 |
| 20260509084515 | 10 | 5 | 0.0 | 1.6 | 0.00 | 0.00 | 0.00 | 89 | 1003.9 |
| 20260509083012 | 10 | 5 | 0.0 | 0.0 | 0.00 | 0.00 | 0.00 | 89 | 1003.8 |
| 20260509081518 | 10 | 5 | 0.0 | 0.0 | 0.00 | 0.00 | 0.00 | 89 | 1003.9 |
| 20260509080007 | 10 | 5 | 0.0 | 0.0 | 0.00 | 0.00 | 0.00 | 89 | 1003.8 |
| 20260509074505 | 10 | 5 | 0.0 | 0.0 | 0.00 | 0.00 | 0.00 | 89 | 1003.8 |
| 20260509073004 | 10 | 5 | 0.0 | 0.0 | 0.00 | 0.00 | 0.00 | 88 | 1004.1 |
| 20260509071501 | 10 | 5 | 0.0 | 0.0 | 0.00 | 0.00 | 0.00 | 88 | 1004.2 |
| 20260509070058 | 10 | 5 | 0.0 | 0.0 | 0.00 | 0.00 | 0.00 | 88 | 1004.4 |
| 20260509064606 | 10 | 5 | 0.0 | 0.0 | 0.00 | 0.00 | 0.00 | 87 | 1004.6 |
| 20260509063054 | 10 | 5 | 0.0 | 0.0 | 0.00 | 0.00 | 0.00 | 87 | 1004.8 |
| 20260509061558 | 10 | 36 | 0.0 | 0.0 | 0.00 | 0.00 | 0.00 | 86 | 1004.9 |
| 20260509060104 | 10 | 36 | 0.0 | 0.0 | 0.00 | 0.00 | 0.00 | 86 | 1005.3 |
| 20260509054604 | 10 | 36 | 0.0 | 0.0 | 0.00 | 0.00 | 0.00 | 84 | 1005.4 |
| 20260509053049 | 10 | 36 | 0.0 | 0.0 | 0.00 | 0.00 | 0.00 | 84 | 1005.4 |
| 20260509051545 | 10 | 36 | 0.0 | 0.0 | 0.00 | 0.00 | 0.00 | 83 | 1005.5 |
| 20260509050143 | 11 | 36 | 0.0 | 0.0 | 0.00 | 0.00 | 0.00 | 81 | 1005.6 |
| 20260509044547 | 11 | 37 | 0.0 | 0.0 | 0.00 | 0.00 | 0.00 | 80 | 1005.7 |
| 20260509043040 | 11 | 360 | 0.0 | 0.0 | 0.00 | 0.00 | 0.00 | 78 | 1005.7 |
| 20260509041539 | 11 | 360 | 0.0 | 0.0 | 0.00 | 0.00 | 0.00 | 76 | 1005.9 |
| 20260509040038 | 11 | 360 | 0.0 | 0.0 | 0.00 | 0.00 | 0.00 | 73 | 1006.0 |
| 20260509034540 | 11 | 360 | 0.0 | 0.0 | 0.00 | 0.00 | 0.00 | 69 | 1006.1 |
| 20260509033034 | 11 | 360 | 0.0 | 0.0 | 0.00 | 0.00 | 0.00 | 64 | 1006.2 |
| 20260509031535 | 11 | 360 | 0.0 | 0.0 | 0.00 | 0.00 | 0.00 | 59 | 1006.3 |
| 20260509030035 | 11 | 360 | 0.0 | 0.0 | 0.00 | 0.00 | 0.00 | 56 | 1006.2 |
| 20260509024532 | 11 | 360 | 0.0 | 0.0 | 0.00 | 0.00 | 0.00 | 52 | 1006.4 |
| 20260509023036 | 12 | 360 | 0.0 | 0.0 | 0.00 | 0.00 | 0.00 | 52 | 1006.5 |
| 20260509021532 | 12 | 360 | 0.0 | 0.0 | 0.00 | 0.00 | 0.00 | 47 | 1006.5 |
| 20260509020031 | 13 | 360 | 0.0 | 0.0 | 0.00 | 0.00 | 0.00 | 37 | 1006.4 |